Terminal Aerodrome Forecast
Issued by NWS

Home | Current Version | Previous Version | Text Only | Print | Product List | Glossary On
Versions: 1 2 3 4 5 6 7 8 9 10 11 12 13 14 15 16 17 18 19 20 21 22 23 24 25 26 27 28 29 30 31 32 33 34
000
FTUS45 KSLC 201740
TAFENV
TAF
KENV 201740Z 2018/2118 11006KT P6SM SCT070
     FM210200 VRB04KT P6SM FEW070 SCT120
     FM211200 VRB04KT P6SM SCT070 BKN100=

USA.gov is the U.S. government's official web portal to all federal, state and local government web resources and services.